Location: Asarope
(8.2500°N, 4.4833°E)
Time: 14:24:19
(UTC+00:00)

Cosmos 1844 Rocket - Pass Details

Date: 07 June 2020
Orbit: 826 x 843 km, 71.0° (Epoch: 07 July)

Event Time Altitude Azimuth Distance (km) Brightness Sun altitude
Rises 03:51:46 0° 342° (NNW) 3,354 5.9 -21.3°
Reaches altitude 10° 03:54:11 10° 340° (NNW) 2,420 5.2 -20.8°
Maximum altitude 03:59:44 77° 255° (WSW) 845 2.5 -19.5°
Drops below altitude 10° 04:05:16 10° 169° (S) 2,420 4.9 -18.3°
Sets 04:07:42 0° 168° (SSE) 3,354 5.7 -17.8°
